Vertical_Velocity
9 -2 -2 3 -0 -1 -2 -2 -1 -3 5 -1 -2 -1 2 1 -0 0 -1 -0 -2 -3 -4 3 3 1 3 2 2 8 7 -5 -3 7 -19 18 1 7 7 -2 -2 -4 -16 -10 -9
3 4 -1 3 1 2 -3 -4 -1 -1 3 -3 -1 -1 1 1 -1 0 1 0 -0 -4 -1 -2 3 3 1 2 -2 3 0 -10 -0 -16 -14 0 7 21 12 3 10 3 -9 -0 9
-1 4 7 -1 2 -1 -2 -4 2 -1 -0 -2 -1 -1 1 0 -2 2 0 0 0 0 -3 1 -2 6 -1 6 3 1 -28 13 -5 -3 -7 4 -7 12 1 -1 6 -17 -11 -11 -34
-12 11 5 6 -3 -3 -1 -2 2 1 -0 -1 -1 -0 1 -1 -1 -1 0 -1 -4 -1 -2 -0 0 -2 -1 -4 4 -7 0 2 0 -0 -9 -8 -5 -7 7 6 6 8 11 5 -36
3 7 5 6 2 -0 0 -0 -2 1 1 -3 -2 0 -1 -1 7 2 1 -2 -6 -4 0 1 -1 4 -9 -1 4 -8 4 3 -0 -0 -4 14 -2 -1 4 6 1 12 7 9 -16
-2 -5 3 9 3 1 2 -4 4 -2 1 -3 -2 0 -1 2 -2 3 0 -3 -4 -2 -1 -3 -2 7 1 -8 1 2 2 7 -8 2 -11 -1 7 2 5 2 9 4 -0 11 -4
8 -5 -7 11 9 -1 5 -4 3 2 1 -5 -2 2 2 -1 1 -3 -5 -4 -1 0 0 -7 6 5 4 6 1 -0 1 7 -4 1 -6 38 -13 -4 8 0 5 3 -1 15 15
7 7 17 -6 9 2 2 -2 1 2 -4 -4 0 3 -5 0 3 -1 -2 -1 0 1 -1 2 0 12 10 -2 6 -3 16 5 -9 1 -6 16 -4 11 4 3 8 -3 -16 11 21
15 3 4 5 11 1 -1 2 -2 2 -5 -1 0 -1 -2 1 -2 -5 -4 -2 0 -0 -2 3 1 6 2 2 6 7 -4 -1 1 13 -1 -3 44 6 22 13 5 3 3 -19 -12
2 23 13 11 4 1 1 -1 1 -0 -3 -2 -2 -2 3 -3 -2 -3 -0 -1 1 -4 -1 7 4 -3 1 -3 -12 -7 -0 -5 3 0 -8 -9 9 -15 19 16 7 1 1 2 9
-2 2 -4 8 12 1 -1 0 2 -4 -5 -0 -1 2 -2 -2 3 -2 -1 -2 2 -6 -2 12 12 -8 -4 -9 -0 9 0 1 5 8 5 -12 2 16 8 10 11 2 2 3 5
-0 -2 11 5 3 3 -1 -2 1 -2 -6 -3 3 2 -4 -1 0 -2 -2 -4 -3 -0 0 -2 -1 1 1 -4 0 7 5 7 5 -3 -16 1 -14 -5 52 -4 4 3 -1 4 -3
2 4 24 6 3 2 0 -2 -1 -3 -4 3 2 -8 3 -0 -5 -5 -1 -5 4 -7 10 4 5 6 1 4 3 1 -2 -11 -9 14 3 -10 7 8 -22 3 -2 8 1 4 1
0 -3 21 8 9 1 -1 -1 0 -0 -3 3 2 -7 6 -2 1 2 0 3 4 -4 -1 9 2 6 5 -1 1 -2 2 10 5 -9 5 -3 -4 -10 15 1 -6 8 2 -3 1
2 2 11 5 10 1 -1 1 -0 -5 -6 -0 -6 -1 -0 3 4 -2 -3 2 -1 -2 11 5 -0 -1 4 -3 4 -7 11 3 -4 -1 -9 2 -6 -2 3 -5 -1 -1 -2 -6 -4
-4 5 18 -0 4 -0 -0 1 1 -4 -11 0 -2 -2 -3 1 4 -6 -6 1 15 5 14 20 -0 11 10 4 6 -2 2 7 2 -1 -4 -0 -3 -6 -4 14 17 -0 1 7 -7
4 3 16 3 4 -2 1 2 -4 -2 -1 1 -3 -4 -1 -1 4 -0 -2 -2 2 -3 -7 -0 12 7 7 -3 13 11 2 -1 -4 -3 -0 1 -1 -15 10 -16 2 -3 -2 1 9
5 2 9 8 3 0 2 3 -1 1 0 -3 -5 -3 1 -2 7 5 -3 -8 5 4 -2 0 -11 -6 6 -5 -2 0 -1 -1 -2 -1 1 2 -3 -6 4 2 8 5 2 2 3
7 3 12 1 9 1 2 -2 0 2 1 -3 -0 -2 -4 2 1 -2 -2 1 3 0 1 -1 1 4 -7 -2 -1 -2 -4 -4 -10 -1 -3 -1 1 3 2 8 8 4 2 1 -0
2 9 12 -3 6 3 2 -0 1 -1 -1 -1 -1 -3 0 -1 -1 2 -1 -2 -0 -0 -1 -0 -4 2 0 3 5 1 2 3 3 -3 -0 -1 -2 0 1 2 8 6 -1 2 2
8 13 1 2 2 2 -2 0 2 -0 0 -3 0 -2 -3 -1 0 -0 2 -1 -0 3 4 2 -1 3 3 -1 2 -1 -4 1 1 -0 -3 -1 1 1 3 0 -0 -6 -3 2 4
5 6 1 5 -1 -1 0 -1 2 0 0 -8 -1 1 -2 -1 0 1 2 2 2 3 -0 -1 -2 -1 -1 -1 -2 -0 -3 -0 -2 1 -1 -1 2 1 -1 1 -0 2 2 4 2
8 2 4 3 -3 -2 0 0 0 -2 -0 -2 1 -1 -2 1 1 -3 -0 -1 1 -2 -1 -3 2 -3 -1 -1 -3 -4 -4 -5 -6 -6 -2 -2 0 2 6 9 3 3 1 -1 1
13 -6 2 1 -1 -0 -0 1 -1 2 1 -0 -1 -1 -5 -4 -2 -0 -1 1 -1 0 1 2 -4 -2 -7 -0 0 2 4 -0 -1 -2 -1 -1 -2 -3 -1 -1 -0 -0 1 2 -2
10 -7 3 -13 -5 1 1 5 -2 -4 -3 -2 1 1 -0 -1 -1 -1 -0 0 -1 -1 -2 -1 -1 1 0 -2 -1 -3 -3 -2 2 4 -3 -0 -4 2 1 -1 -2 -3 -2 -1 -3
-3 3 -0 2 4 1 -1 -1 -1 -3 -4 -4 -1 -1 0 2 1 -1 -0 -0 -1 -1 1 -2 -2 -3 -1 0 -0 1 -1 0 1 2 -2 1 -5 0 -1 -1 -2 -7 -9 -3 -1
1 3 0 0 -1 0 -3 -0 -2 0 -0 -1 1 2 3 1 -3 -3 -0 -2 -0 -2 -1 -3 -1 -1 -2 0 -2 -1 -1 1 5 0 2 1 1 -1 -1 -2 -1 2 -1 -4 -3
Height
3095 3092 3088 3083 3078 3075 3071 3065 3060 3056 3053 3050 3048 3048 3047 3046 3046 3046 3045 3046 3046 3045 3045 3047 3047 3048 3049 3052 3056 3058 3061 3060 3063 3069 3073 3083 3087 3092 3093 3095 3096 3098 3102 3106 3110
3092 3089 3085 3080 3075 3070 3065 3062 3057 3052 3049 3046 3045 3043 3042 3042 3042 3042 3040 3039 3038 3039 3041 3041 3042 3042 3044 3045 3049 3051 3053 3055 3062 3067 3072 3077 3084 3088 3090 3092 3093 3097 3097 3102 3105
3086 3085 3081 3076 3072 3066 3060 3057 3053 3049 3045 3043 3041 3040 3039 3038 3038 3036 3034 3033 3033 3034 3036 3036 3037 3036 3036 3040 3042 3045 3045 3053 3058 3065 3069 3073 3079 3082 3085 3088 3091 3093 3094 3096 3102
3082 3079 3076 3071 3068 3063 3057 3051 3049 3045 3043 3040 3038 3037 3035 3036 3038 3032 3031 3030 3029 3030 3031 3030 3031 3032 3032 3033 3037 3040 3043 3048 3055 3060 3066 3069 3074 3078 3081 3085 3090 3095 3096 3097 3098
3077 3075 3071 3067 3062 3058 3053 3048 3045 3042 3039 3036 3035 3033 3032 3032 3032 3029 3028 3027 3027 3026 3026 3025 3025 3025 3026 3028 3033 3034 3038 3043 3051 3057 3062 3065 3070 3073 3076 3080 3086 3090 3095 3097 3100
3072 3070 3066 3062 3056 3053 3049 3044 3041 3039 3036 3034 3032 3030 3029 3030 3027 3025 3024 3024 3023 3022 3021 3019 3019 3020 3020 3022 3027 3030 3033 3040 3047 3053 3057 3060 3066 3070 3072 3075 3082 3087 3092 3095 3097
3064 3064 3060 3057 3052 3049 3045 3040 3038 3036 3034 3031 3029 3028 3026 3027 3024 3022 3022 3021 3020 3019 3017 3015 3012 3014 3015 3018 3023 3027 3032 3038 3042 3048 3051 3050 3059 3063 3067 3072 3075 3082 3087 3091 3097
3058 3058 3055 3052 3048 3045 3042 3036 3036 3034 3032 3029 3027 3025 3024 3023 3021 3019 3019 3018 3017 3015 3014 3012 3008 3008 3012 3016 3021 3025 3030 3033 3038 3044 3049 3053 3054 3057 3064 3068 3072 3077 3083 3088 3091
3052 3053 3049 3047 3043 3041 3038 3034 3034 3032 3030 3027 3025 3023 3022 3021 3019 3017 3015 3015 3014 3013 3011 3009 3008 3007 3010 3013 3019 3021 3023 3029 3037 3044 3046 3049 3041 3052 3061 3066 3069 3075 3079 3085 3089
3046 3044 3043 3041 3039 3036 3034 3033 3032 3031 3028 3026 3024 3024 3021 3019 3016 3015 3013 3013 3012 3010 3009 3005 3004 3005 3008 3012 3014 3014 3023 3028 3035 3041 3046 3043 3040 3049 3059 3063 3066 3072 3076 3082 3086
3037 3038 3038 3036 3034 3031 3033 3031 3033 3031 3028 3025 3024 3020 3017 3016 3014 3012 3012 3010 3009 3008 3005 3002 3001 3001 3003 3009 3012 3016 3023 3027 3034 3041 3042 3050 3046 3049 3053 3058 3064 3070 3075 3081 3086
3028 3032 3033 3032 3030 3027 3030 3029 3029 3030 3028 3024 3021 3019 3017 3015 3014 3011 3010 3009 3005 3004 3003 3003 2999 3001 3004 3008 3011 3018 3024 3029 3033 3040 3048 3048 3047 3040 3042 3053 3062 3069 3074 3079 3083
3021 3025 3026 3027 3026 3026 3027 3026 3027 3028 3027 3024 3022 3021 3018 3016 3013 3011 3010 3006 3002 3000 3000 3001 3000 2999 3002 3007 3012 3018 3023 3028 3031 3038 3047 3047 3044 3045 3048 3054 3060 3068 3073 3078 3082
3014 3020 3021 3022 3025 3024 3025 3024 3026 3027 3027 3027 3023 3022 3020 3016 3015 3011 3009 3005 3004 3004 3002 3000 2999 2999 3000 3009 3016 3019 3025 3028 3031 3040 3039 3048 3050 3047 3047 3051 3058 3065 3070 3076 3081
3009 3013 3016 3018 3019 3021 3023 3022 3025 3028 3030 3027 3025 3023 3020 3018 3017 3012 3009 3007 3007 3005 3003 3003 3001 3003 3007 3012 3017 3023 3029 3034 3037 3041 3047 3050 3048 3047 3047 3050 3058 3064 3070 3074 3080
3000 3006 3010 3014 3016 3019 3020 3021 3025 3029 3025 3025 3025 3024 3021 3019 3018 3015 3011 3010 3009 3007 3005 2997 3003 3007 3010 3015 3020 3023 3030 3037 3043 3046 3050 3050 3051 3048 3051 3054 3057 3064 3067 3071 3076
2995 3000 3005 3009 3014 3017 3018 3020 3026 3024 3025 3026 3026 3025 3022 3021 3019 3018 3015 3014 3013 3014 3010 3009 3008 3013 3016 3019 3025 3029 3032 3038 3044 3046 3049 3049 3053 3054 3056 3055 3059 3063 3065 3068 3072
2989 2995 2999 3005 3010 3013 3016 3021 3021 3020 3021 3024 3026 3025 3023 3023 3022 3021 3020 3018 3018 3017 3016 3016 3021 3022 3024 3026 3028 3032 3033 3034 3039 3043 3045 3049 3054 3053 3054 3057 3059 3060 3061 3064 3070
2982 2988 2996 2999 3006 3011 3015 3017 3017 3019 3021 3024 3026 3026 3024 3024 3025 3024 3023 3023 3022 3019 3020 3022 3026 3028 3029 3030 3034 3035 3038 3039 3042 3048 3051 3056 3055 3054 3057 3059 3061 3062 3064 3066 3068
2976 2986 2993 2998 3002 3008 3013 3015 3016 3018 3021 3025 3025 3025 3026 3026 3026 3025 3026 3026 3024 3023 3023 3026 3029 3032 3033 3035 3036 3038 3041 3044 3043 3051 3054 3056 3054 3056 3057 3059 3061 3062 3064 3067 3068
2976 2984 2989 2996 3001 3007 3009 3014 3015 3018 3022 3026 3026 3026 3027 3027 3027 3027 3028 3029 3027 3027 3027 3028 3031 3038 3037 3037 3039 3042 3042 3041 3041 3046 3053 3057 3058 3057 3058 3060 3061 3061 3063 3064 3064
2974 2982 2987 2993 2999 3003 3008 3012 3014 3018 3021 3025 3027 3028 3029 3029 3029 3029 3029 3030 3030 3031 3032 3032 3035 3038 3041 3042 3042 3043 3042 3042 3044 3051 3052 3054 3059 3057 3058 3059 3059 3060 3061 3062 3062
2974 2980 2986 2992 2996 3001 3006 3010 3013 3017 3022 3025 3027 3029 3030 3031 3032 3032 3032 3033 3033 3034 3034 3035 3037 3039 3044 3047 3046 3047 3048 3048 3049 3051 3054 3057 3059 3059 3060 3060 3060 3060 3060 3060 3061
2975 2980 2986 2990 2994 3000 3004 3009 3012 3018 3022 3025 3027 3030 3031 3032 3032 3033 3033 3034 3035 3035 3036 3037 3038 3039 3042 3043 3045 3047 3049 3050 3052 3055 3056 3056 3057 3057 3058 3058 3057 3057 3057 3057 3058
2974 2979 2984 2985 2991 2998 3003 3008 3012 3016 3021 3025 3028 3030 3032 3033 3033 3034 3035 3036 3037 3038 3038 3040 3041 3042 3042 3044 3046 3047 3048 3049 3051 3053 3055 3057 3058 3058 3058 3056 3055 3054 3055 3054 3055
2976 2980 2983 2988 2992 2997 3002 3006 3011 3016 3021 3025 3028 3031 3033 3035 3035 3035 3037 3037 3039 3040 3040 3041 3042 3044 3044 3045 3046 3047 3047 3048 3049 3051 3054 3055 3054 3054 3054 3052 3051 3051 3051 3050 3049
2978 2982 2986 2987 2991 2997 3001 3007 3011 3017 3022 3026 3029 3032 3034 3035 3035 3037 3038 3038 3039 3040 3041 3042 3043 3044 3045 3045 3046 3049 3048 3049 3051 3051 3051 3051 3051 3049 3049 3048 3048 3048 3046 3046 3045